This is the latest recevied weather packets stored in our database for station/object K4CRS-13. If no packets are shown the sender has not sent any weather packets the latest 10 day(s).
| Time | Temp. | Humidity | Pressure | Rain* | Wind** | Luminosity | Snow |
|---|---|---|---|---|---|---|---|
| 1787592572 | 30.56° C | 51% | 1052.6 hPa | 0 mm | - | 811 W/m² | - |
| 1787592271 | 30.56° C | 53% | 1052.9 hPa | 0 mm | - | 840 W/m² | - |
| 1787591968 | 31.11° C | 54% | 1052.8 hPa | 0 mm | - | 843 W/m² | - |
| 1787591663 | 31.67° C | 53% | 1052.9 hPa | 0 mm | - | 832 W/m² | - |
| 1787591360 | 31.67° C | 50% | 1053 hPa | 0 mm | - | 820 W/m² | - |
| 1787591059 | 30.56° C | 51% | 1052.8 hPa | 0 mm | - | 804 W/m² | - |
| 1787590755 | 31.11° C | 51% | 1052.9 hPa | 0 mm | - | 790 W/m² | - |
| 1787590450 | 30.56° C | 52% | 1053.1 hPa | 0 mm | - | 798 W/m² | - |
| 1787590145 | 30° C | 52% | 1053 hPa | 0 mm | - | 178 W/m² | - |
| 1787589841 | 31.11° C | 51% | 1053 hPa | 0 mm | - | 839 W/m² | - |
| 1787589537 | 32.22° C | 49% | 1052.9 hPa | 0 mm | - | 827 W/m² | - |
| 1787589231 | 31.67° C | 49% | 1053 hPa | 0 mm | - | 815 W/m² | - |
| 1787588927 | 31.67° C | 54% | 1052.9 hPa | 0 mm | - | 163 W/m² | - |
| 1787588623 | 31.11° C | 53% | 1053.1 hPa | 0 mm | - | 733 W/m² | - |
| 1787588318 | 31.11° C | 55% | 1052.8 hPa | 0 mm | - | 724 W/m² | - |
| 1787588013 | 31.11° C | 53% | 1052.8 hPa | 0 mm | - | 720 W/m² | - |
| 1787587709 | 31.67° C | 52% | 1052.6 hPa | 0 mm | - | 713 W/m² | - |
| 1787587404 | 31.11° C | 56% | 1052.6 hPa | 0 mm | - | 701 W/m² | - |
| 1787587103 | 31.67° C | 55% | 1052.9 hPa | 0 mm | - | 691 W/m² | - |
| 1787586798 | 31.67° C | 51% | 1053.1 hPa | 0 mm | - | 682 W/m² | - |
| 1787586493 | 31.67° C | 57% | 1052.8 hPa | 0 mm | - | 668 W/m² | - |
| 1787586189 | 31.67° C | 55% | 1052.9 hPa | 0 mm | - | 660 W/m² | - |
| 1787585885 | 30.56° C | 58% | 1052.9 hPa | 0 mm | - | 646 W/m² | - |
| 1787585584 | 31.11° C | 58% | 1052.8 hPa | 0 mm | - | 634 W/m² | - |
| 1787585280 | 30° C | 58% | 1052.9 hPa | 0 mm | - | 620 W/m² | - |
* Rain latest hour (hover to see other rain measurements)
** Current wind speed in m/s (hover to see current wind gust speed)